KE7JVX-3 Weather Reports


time (UTC)temp
F
wind
direction
speed
knots
gust
knots
rain 1hr
in
rain 24hr
in
rain mn
in
humidity
%
barometer
mb
20260906043907 64 0 0.0 0.0 0.00 0.00 0.00 27 1016.7
20260906042906 63 0 0.0 1.7 0.00 0.00 0.00 28 1016.6
20260906041907 63 0 0.0 1.7 0.00 0.00 0.00 29 1016.7
20260906040906 63 0 0.0 0.0 0.00 0.00 0.00 30 1016.7
20260906035906 63 0 0.0 1.7 0.00 0.00 0.00 28 1016.7
20260906034907 62 0 0.0 1.7 0.00 0.00 0.00 28 1016.5
20260906033906 61 359 0.9 2.6 0.00 0.00 0.00 37 1016.5
20260906032906 60 359 1.7 3.5 0.00 0.00 0.00 43 1016.3
20260906031907 60 351 0.9 4.3 0.00 0.00 0.00 45 1016.2
20260906030906 60 318 0.9 7.8 0.00 0.00 0.00 50 1016.2
20260906025906 60 331 2.6 7.8 0.00 0.00 0.00 51 1016.1
20260906024907 60 338 5.2 9.6 0.00 0.00 0.00 51 1016.0
20260906023906 60 326 5.2 10.4 0.00 0.00 0.00 51 1016.0
20260906022907 60 318 3.5 8.7 0.00 0.00 0.00 51 1015.8
20260906021906 60 322 6.1 10.4 0.00 0.00 0.00 50 1015.8
20260906020906 60 318 7.8 12.2 0.00 0.00 0.00 50 1015.8
20260906015906 60 315 7.8 13.0 0.00 0.00 0.00 49 1015.7
20260906014908 61 315 8.7 13.9 0.00 0.00 0.00 49 1015.8
20260906013906 61 308 10.4 15.6 0.00 0.00 0.00 48 1015.8
20260906012906 61 304 9.6 17.4 0.00 0.00 0.00 47 1015.9
20260906011906 62 306 7.8 13.9 0.00 0.00 0.00 46 1015.9
20260906010906 63 308 8.7 16.5 0.00 0.00 0.00 45 1015.9
20260906005906 63 311 10.4 16.5 0.00 0.00 0.00 42 1016.0
20260906004929 64 298 8.7 15.6 0.00 0.00 0.00 41 1016.0
20260906004907 64 310 7.0 15.6 0.00 0.00 0.00 42 1016.0
20260906003906 64 298 8.7 15.6 0.00 0.00 0.00 41 1016.0
20260906002906 65 305 6.1 12.2 0.00 0.00 0.00 40 1016.0
20260906001907 66 312 7.0 12.2 0.00 0.00 0.00 38 1015.9
20260906000907 66 298 7.0 13.0 0.00 0.00 0.00 39 1015.9
20260905235908 66 319 5.2 16.5 0.00 0.00 0.00 38 1015.8
20260905234906 66 278 5.2 10.4 0.00 0.00 0.00 37 1015.9
20260905233906 66 278 6.1 13.9 0.00 0.00 0.00 39 1015.9
20260905232907 66 291 6.1 14.8 0.00 0.00 0.00 39 1015.8
20260905231906 66 332 6.1 13.9 0.00 0.00 0.00 37 1015.9
20260905230906 67 289 4.3 11.3 0.00 0.00 0.00 38 1015.9
20260905225906 67 302 5.2 8.7 0.00 0.00 0.00 39 1015.9
20260905224906 66 297 3.5 12.2 0.00 0.00 0.00 40 1016.0
20260905223906 66 295 0.9 12.2 0.00 0.00 0.00 37 1016.2
20260905222906 66 276 6.1 16.5 0.00 0.00 0.00 39 1016.2
20260905221906 66 260 5.2 13.9 0.00 0.00 0.00 39 1016.3
20260905220906 66 327 4.3 13.9 0.00 0.00 0.00 40 1016.3
20260905215907 66 262 5.2 14.8 0.00 0.00 0.00 39 1016.4
20260905214906 65 265 7.8 14.8 0.00 0.00 0.00 41 1016.5
20260905213906 65 285 7.8 15.6 0.00 0.00 0.00 41 1016.5
20260905212906 66 276 7.8 15.6 0.00 0.00 0.00 40 1016.7
20260905211908 66 284 7.8 14.8 0.00 0.00 0.00 41 1016.7
20260905210906 65 244 6.1 16.5 0.00 0.00 0.00 41 1016.8
20260905205907 65 268 7.0 15.6 0.00 0.00 0.00 43 1017.0
20260905204906 65 248 7.8 13.9 0.00 0.00 0.00 40 1017.0
20260905203906 65 271 6.1 12.2 0.00 0.00 0.00 40 1017.1
20260905202906 65 258 8.7 15.6 0.00 0.00 0.00 41 1017.2
20260905201909 65 284 8.7 16.5 0.00 0.00 0.00 41 1017.2
20260905200906 65 255 7.0 16.5 0.00 0.00 0.00 43 1017.4
20260905195906 65 265 8.7 13.0 0.00 0.00 0.00 41 1017.4
20260905194906 65 258 4.3 12.2 0.00 0.00 0.00 44 1017.5
20260905193906 65 258 6.1 11.3 0.00 0.00 0.00 38 1017.5
20260905192906 65 282 5.2 10.4 0.00 0.00 0.00 39 1017.6
20260905191907 66 263 2.6 7.0 0.00 0.00 0.00 42 1017.6
20260905190908 65 283 1.7 9.6 0.00 0.00 0.00 45 1017.7
20260905185906 65 294 4.3 10.4 0.00 0.00 0.00 44 1017.9
20260905184906 64 269 4.3 8.7 0.00 0.00 0.00 50 1017.9
20260905183906 64 287 3.5 7.8 0.00 0.00 0.00 48 1017.9
20260905182907 63 270 2.6 7.8 0.00 0.00 0.00 50 1018.0
20260905181906 62 231 4.3 8.7 0.00 0.00 0.00 51 1018.0
20260905180906 62 248 6.1 9.6 0.00 0.00 0.00 48 1018.0
20260905175906 63 250 4.3 8.7 0.00 0.00 0.00 46 1018.1
20260905174906 63 214 3.5 8.7 0.00 0.00 0.00 48 1018.0
20260905173906 62 252 3.5 8.7 0.00 0.00 0.00 48 1018.1
20260905172906 62 245 3.5 7.8 0.00 0.00 0.00 46 1018.1
20260905171906 62 266 1.7 7.0 0.00 0.00 0.00 49 1018.0
20260905170906 62 234 2.6 7.0 0.00 0.00 0.00 48 1018.0
20260905165906 61 254 3.5 7.0 0.00 0.00 0.00 48 1017.9
20260905164906 61 255 0.9 4.3 0.00 0.00 0.00 48 1017.9
20260905163906 62 0 0.0 7.0 0.00 0.00 0.00 47 1017.8
20260905162906 62 0 0.0 3.5 0.00 0.00 0.00 49 1017.7
20260905161906 61 0 0.0 3.5 0.00 0.00 0.00 50 1017.7
20260905160906 60 233 0.9 3.5 0.00 0.00 0.00 51 1017.7
20260905155906 59 233 0.9 3.5 0.00 0.00 0.00 51 1017.6
20260905154906 59 0 0.0 4.3 0.00 0.00 0.00 50 1017.5
20260905153906 60 233 0.9 3.5 0.00 0.00 0.00 49 1017.5
20260905152906 60 0 0.0 2.6 0.00 0.00 0.00 47 1017.5
20260905151906 60 0 0.0 2.6 0.00 0.00 0.00 48 1017.5
20260905150906 60 319 0.9 3.5 0.00 0.00 0.00 49 1017.4
20260905145906 59 0 0.0 2.6 0.00 0.00 0.00 49 1017.3
20260905144906 59 319 0.9 3.5 0.00 0.00 0.00 46 1017.3
20260905143906 59 319 0.9 4.3 0.00 0.00 0.00 44 1017.3
20260905142906 58 319 1.7 4.3 0.00 0.00 0.00 44 1017.2
20260905141906 58 328 1.7 4.3 0.00 0.00 0.00 43 1017.2
20260905140906 58 325 1.7 7.0 0.00 0.00 0.00 38 1017.1
20260905135906 58 312 3.5 6.1 0.00 0.00 0.00 37 1017.0
20260905134906 58 315 2.6 7.0 0.00 0.00 0.00 36 1016.9
20260905133906 57 314 2.6 6.1 0.00 0.00 0.00 38 1016.8
20260905132906 57 319 2.6 7.0 0.00 0.00 0.00 38 1016.7
20260905131906 57 314 4.3 8.7 0.00 0.00 0.00 38 1016.5
20260905130906 57 316 4.3 7.8 0.00 0.00 0.00 38 1016.5
20260905125906 57 310 4.3 10.4 0.00 0.00 0.00 39 1016.4
20260905124906 57 306 5.2 9.6 0.00 0.00 0.00 38 1016.4
20260905123910 57 313 4.3 8.7 0.00 0.00 0.00 38 1016.3
20260905122906 57 313 5.2 7.8 0.00 0.00 0.00 38 1016.3
20260905121906 56 306 5.2 9.6 0.00 0.00 0.00 45 1016.3
20260905120906 56 312 6.1 8.7 0.00 0.00 0.00 47 1016.3
20260905115906 56 307 6.1 9.6 0.00 0.00 0.00 44 1016.3
20260905114906 56 309 6.1 10.4 0.00 0.00 0.00 46 1016.3
20260905113906 56 305 7.0 10.4 0.00 0.00 0.00 47 1016.2
20260905112906 56 308 7.8 10.4 0.00 0.00 0.00 48 1016.2
20260905111907 56 306 7.0 10.4 0.00 0.00 0.00 49 1016.2
20260905110409 57 309 7.0 11.3 0.00 0.00 0.00 45 1016.3
20260905105407 57 306 7.0 11.3 0.00 0.00 0.00 45 1016.3
20260905104408 57 304 7.8 12.2 0.00 0.00 0.00 46 1016.3
20260905103408 56 303 8.7 12.2 0.00 0.00 0.00 48 1016.2
20260905102408 56 308 7.8 11.3 0.00 0.00 0.00 50 1016.3
20260905101412 56 308 7.8 12.2 0.00 0.00 0.00 52 1016.3
20260905100407 56 307 7.0 10.4 0.00 0.00 0.00 53 1016.3
20260905095407 56 311 7.0 10.4 0.00 0.00 0.00 53 1016.3
20260905094407 56 316 6.1 9.6 0.00 0.00 0.00 54 1016.2
20260905093413 56 312 7.8 10.4 0.00 0.00 0.00 55 1016.2
20260905092407 56 310 7.0 11.3 0.00 0.00 0.00 54 1016.3
20260905091410 56 312 7.8 12.2 0.00 0.00 0.00 54 1016.3
20260905090411 56 311 7.8 12.2 0.00 0.00 0.00 54 1016.3
20260905085407 56 310 7.0 13.0 0.00 0.00 0.00 54 1016.3
20260905084407 56 305 7.8 13.9 0.00 0.00 0.00 53 1016.3
20260905083407 56 310 8.7 12.2 0.00 0.00 0.00 53 1016.4
20260905082407 56 305 7.8 13.9 0.00 0.00 0.00 53 1016.5
20260905081408 56 302 7.0 13.0 0.00 0.00 0.00 52 1016.5
20260905080407 57 307 7.0 10.4 0.00 0.00 0.00 52 1016.6
20260905075408 57 304 7.0 9.6 0.00 0.00 0.00 51 1016.6
20260905074410 57 299 7.0 10.4 0.00 0.00 0.00 51 1016.7
20260905073407 57 297 7.0 11.3 0.00 0.00 0.00 51 1016.7
20260905072407 57 285 7.0 13.0 0.00 0.00 0.00 51 1016.7
20260905071407 57 276 7.8 11.3 0.00 0.00 0.00 52 1016.7
20260905070407 57 272 7.8 11.3 0.00 0.00 0.00 52 1016.7
20260905065407 58 271 7.8 12.2 0.00 0.04 0.00 51 1016.7
20260905064407 58 269 8.7 12.2 0.00 0.05 0.00 51 1016.6
20260905063407 58 264 7.8 13.0 0.00 0.05 0.00 51 1016.6
20260905062407 58 259 8.7 13.0 0.00 0.05 0.00 50 1016.7
20260905061407 58 251 7.8 13.0 0.00 0.05 0.00 49 1016.6
20260905060407 58 258 7.8 11.3 0.00 0.05 0.00 50 1016.6
20260905055407 58 263 8.7 13.0 0.00 0.05 0.00 50 1016.6
20260905054407 58 251 7.0 10.4 0.00 0.05 0.00 50 1016.7
20260905053408 58 257 6.1 10.4 0.00 0.05 0.00 50 1016.7
20260905052407 58 255 6.1 9.6 0.00 0.05 0.00 50 1016.8
20260905051407 58 266 7.0 11.3 0.00 0.05 0.00 49 1016.7
20260905050407 58 267 8.7 11.3 0.00 0.05 0.00 49 1016.7
20260905045407 58 270 7.8 11.3 0.00 0.05 0.00 49 1016.7